Home   Weather   Newport News   Past weeks

Flag for USA Past Weather in Newport News, Virginia, USA — Yesterday and Last 2 Weeks

Now
40 °F

Sunny.


Feels Like: 33 °F
Forecast: 31 / 42 °F
Wind: 10 mph from Northwest

Location: Newport News / Williamsburg International Airport

Current Time: Dec 9, 2016 at 4:29:15 pm

Latest Report: Dec 9, 2016 at 3:54 pm


Visibility: 10 mi

Pressure: 30.35 "Hg

Humidity: 35%

Dew Point: 14 °F

Location of Newport NewsLocation

Past Weather in Newport News — Graph

°F

Newport News Temperature Yesterday

Maximum temperature yesterday: 49 °F (at 1:54 pm)
Minimum temperature yesterday: 35 °F (at 12:54 am)
Average temperature yesterday: 42 °F

High & Low Weather Summary for the Past Weeks

 TemperatureHumidityPressure
High75 °F (Nov 30, 12:54 pm)100% (Nov 24, 5:54 pm)30.35 "Hg (Nov 24, 5:54 pm)
Low30 °F (Nov 28, 2:54 am)33% (Dec 9, 1:54 pm)29.60 "Hg (Dec 6, 5:04 pm)
Average49 °F75%30.07 "Hg
* Reported Nov 24 2:54 pm — Dec 9 2:54 pm, Newport News, Weather by CustomWeather, © 2016

Note: Actual official high and low records may vary slightly from our data, if they occured in-between our weather recording intervals... More about our weather records

Advertising

Newport News Weather History for the Previous 24 Hours

Scroll right to see more
 ConditionsComfort  
Time TempWeatherWind HumidityBarometerVisibility
2:54 pm
Fri, Dec 9
42 °FSunny.13 mph33%30.32 "Hg10 mi
1:54 pm42 °FSunny.14 mph33%30.32 "Hg10 mi
12:54 pm41 °FSunny.16 mph36%30.32 "Hg10 mi
11:54 am40 °FSunny.15 mph38%30.33 "Hg10 mi
10:54 am38 °FSunny.10 mph41%30.35 "Hg10 mi
9:54 am36 °FSunny.14 mph44%30.35 "Hg10 mi
8:54 am34 °FSunny.13 mph48%30.33 "Hg10 mi
7:54 am32 °FSunny.9 mph54%30.31 "Hg10 mi
6:54 am30 °FClear.10 mph61%30.29 "Hg10 mi
5:54 am31 °FClear.5 mph59%30.27 "Hg10 mi
4:54 am32 °FClear.8 mph59%30.25 "Hg10 mi
3:54 am33 °FClear.6 mph56%30.22 "Hg10 mi
2:54 am34 °FClear.8 mph54%30.22 "Hg10 mi
1:54 am36 °FClear.9 mph48%30.19 "Hg10 mi
12:54 am37 °FClear.13 mph48%30.17 "Hg10 mi
11:54 pm
Thu, Dec 8
39 °FClear.8 mph43%30.16 "Hg10 mi
10:54 pm39 °FClear.7 mph53%30.15 "Hg10 mi
9:54 pm41 °FClear.6 mph53%30.13 "Hg10 mi
8:54 pm41 °FClear.9 mph51%30.12 "Hg10 mi
7:54 pm44 °FClear.6 mph40%30.13 "Hg10 mi
6:54 pm43 °FClear.8 mph45%30.11 "Hg10 mi
5:54 pm43 °FClear.5 mph74%30.08 "Hg10 mi
4:54 pm43 °FClear.No wind86%30.05 "Hg10 mi
Weather by CustomWeather, © 2016

See weather overviewHow to use our weather pages